Find Starlink 37356

NORAD ID: 68705 Int'l Des: 2026-081 Owner: SPXS Country: US Constellation: starlink operational
LEOCIRCULAR

实时位置

正在加载3D地球...

关于 Starlink 37356

正在加载描述...

即将过境

Passes for default location (London). Set your location on the main map for personalized predictions.

高度历史

Loading altitude history...

两行轨道根数

1 68705C 26081F 26105.38798611 .00618190 00000+0 80006-3 0 1050
2 68705 53.1628 237.9753 0007522 302.1058 41.0220 16.06011513 18
Epoch: Apr 15, 2026 • Age: 24 hours

当前状态

高度 270.2 km
速度 7.75 km/s
星下点 -51.66°S, 77.35°W
发射日期 Apr 14, 2026
运行时间 1 days
类型 internet

技术详情

分类 Payload
质量 575.00 kg
干质量 530.00 kg
总质量 575.00 kg
长度 0.30 m
直径 4.10 m
跨度 29.00 m
形状 Box + pan
制造商 SPXS
平台类型 Starlink V2MO
阶段状态 In Orbit
所有者/国家 SPXS/US

Most Searched